Regional Weather Roundup
Issued by NWS

Home | Current Version | Previous Version | Graphics & Text | Print | Product List | Glossary On
Versions: 1 2 3 4 5 6 7 8 9 10 11 12 13 14 15 16 17 18 19 20 21 22 23 24 25 26 27 28 29 30 31 32 33 34 35 36 37 38 39 40 41 42 43 44 45 46 47 48 49 50
232
ASUS43 KLOT 281509
RWRIL

ILLINOIS REGIONAL WEATHER ROUNDUP
NATIONAL WEATHER SERVICE CHICAGO/ROMEOVILLE IL
1000 AM CDT FRI JUL 28 2017

NOTE: "FAIR" INDICATES FEW OR NO CLOUDS BELOW 12,000 FEET WITH NO
SIGNIFICANT WEATHER AND/OR OBSTRUCTIONS TO VISIBILITY.

* THESE STATIONS ARE NOT UNDER NWS QUALITY CONTROL. THEY ALSO MAY NOT
  REPORT WEATHER SUCH AS PRECIPITATION OR FOG.

ILZ001-002-007-009-015-016-024-281600-
NORTHWEST ILLINOIS

CITY           SKY/WX    TMP DP  RH WIND       PRES   REMARKS
MOLINE         SUNNY     75  57  53 NE8       30.02S
STERLING*      SUNNY     74  61  63 NE13      30.03R
SAVANNA*       SUNNY     73  58  59 NE12      30.04S
$$

ILZ003-004-008-010-011-017-018-281600-
NORTH CENTRAL ILLINOIS

CITY           SKY/WX    TMP DP  RH WIND       PRES   REMARKS
ROCKFORD       MOSUNNY   76  57  51 NE12      30.04R
FREEPORT*      SUNNY     71  59  65 NE9       30.06S
ROCHELLE*      MOSUNNY   71  65  79 NE8       30.03R
DE KALB*       MOSUNNY   72  65  80 NE10      30.02S
PERU*          SUNNY     72  64  76 NE12      30.01R
$$

ILZ005-006-012>014-019>023-281600-
NORTHEAST ILLINOIS

CITY           SKY/WX    TMP DP  RH WIND       PRES   REMARKS
CHICAGO-OHARE  PTSUNNY   75  62  64 N17G24    29.99S
CHICAGO-MIDWAY PTSUNNY   75  63  66 N14G21    29.98S
AURORA         PTSUNNY   73  65  75 N13       30.00S
LANSING*       MOSUNNY   74  62  66 NE8       29.97S
JOLIET*        MOSUNNY   77  67  72 NE10      29.98R
WAUKEGAN       PTSUNNY   71  64  78 NE12      30.01S
DUPAGE AIRPORT MOSUNNY   75  65  70 NE14      30.00R
KANKAKEE*      CLOUDY    74  66  78 NE9       29.97R
WHEELING       MOSUNNY   72  64  76 N12       30.02R
MORRIS*        MOSUNNY   75  66  74 NE6       29.97S
ROMEOVILLE*    MOSUNNY   75  64  67 NE12      29.99R
NORTHERLY ISL    N/A     72  63  73 N14         N/A
$$

LMZ740>746-281600-
SOUTHERN LAKE MICHIGAN

STATION/POSITION SKY/WX   TEMP    WIND        PRES    VSBY  WAVE
                          AIR SEA DIR/SP/G                  HT/PER
                          (F)     (DEG/KT/KT) (MB)    (MI)  (FT/S)
SOUTHERN BUOY              69 72   40/ 12/ 14 1015.8          3/ 5
WILMETTE HARBOR            70 71   20/ 12/ 16   N/A           4/ 5
HARRISON CRIB              71      40/ 17/ 18   N/A
BURNHAM HARBOR             73                   N/A
CALUMET HARBOR             72      10/ 10/ 13 1014.9S
BURNS HARBOR               71      60/ 13/ 15 1015.2S
MICHIGAN CITY              68      30/ 12/ 13   N/A
MICHIGAN CITY 6N           70 73   50/ 12/ 16   N/A           4/ 5
ST. JOSEPH                 69 71   40/ 12/ 14 1015.1          3/ 5
$$

ILZ025>027-034>036-040-047-049-050-058-095>099-281600-
WEST-CENTRAL ILLINOIS

CITY           SKY/WX    TMP DP  RH WIND       PRES   REMARKS
QUINCY         SUNNY     75  62  64 N8        29.98S
GALESBURG*     SUNNY     72  64  75 N14       30.01S
MACOMB*        SUNNY     73  65  75 N8        30.02R
JACKSONVILLE*  SUNNY     73  65  74 N9        29.96S
PITTSFIELD*    SUNNY     75  65  71 N6        29.99R
$$

ILZ028>032-037-038-041>044-048-051>054-059>061-281600-
CENTRAL ILLINOIS

CITY           SKY/WX    TMP DP  RH WIND       PRES   REMARKS
PONTIAC        PTSUNNY   75  71  89 NE14      29.98R
BLOOMINGTON    CLOUDY    73  67  81 NE17      29.97R
DECATUR        CLOUDY    73  67  81 N12       29.93S
PEORIA         SUNNY     75  65  70 NE10      29.98R
LACON*         SUNNY     74  66  77 N7        29.98S
LINCOLN*       SUNNY     75  69  80 N10       29.95S
SPRINGFIELD    SUNNY     76  68  76 N14       29.96R
TAYLORVILLE    SUNNY     73  68  83 N9        29.94R
$$

ILZ033-039-045-046-055>057-062-063-281600-
EAST-CENTRAL ILLINOIS

CITY           SKY/WX    TMP DP  RH WIND       PRES   REMARKS
CHAMPAIGN      CLOUDY    74  69  85 NE13      29.93R
RANTOUL*       CLOUDY    74  70  86 NE14      29.94R
MATTOON        CLOUDY    71  71 100 N14       29.90R
PARIS*         CLOUDY    72  71  98 NE6       29.90S FOG
$$

ILZ079-100>102-281600-
SOUTHWEST ILLINOIS

CITY           SKY/WX    TMP DP  RH WIND       PRES   REMARKS
ALTON          MOSUNNY   73  66  78 N10       29.94R
BELLEVILLE     SUNNY     77  69  74 NW10      29.92R
CAHOKIA*       SUNNY     79  66  64 N10       29.92R HX  81
SPARTA*        MOSUNNY   76  70  80 NW7       29.92R
$$

ILZ064>066-069>071-074>076-080>082-084>086-088>090-092>094-281600-
SOUTH-CENTRAL ILLINOIS

CITY           SKY/WX    TMP DP  RH WIND       PRES   REMARKS
CARBONDALE     CLOUDY    75  73  93 NW8       29.89R
CAIRO*         CLOUDY    79  75  90 N8        29.86S HX  82
EFFINGHAM*     MOSUNNY   76  72  87 NW9       29.91S
MARION         CLOUDY    77  77 100 N9        29.89R FOG
MT. VERNON     PTSUNNY   77  72  83 VRB3      29.89R
CENTRALIA*     SUNNY     77  72  84 N7        29.90R
SALEM*         MOSUNNY   77  70  78 N7        29.90R
METROPOLIS*    CLOUDY    79  75  88 N8        29.86S HX  83
$$

ILZ067-068-072-073-078-083-087-091-281600-
SOUTHEAST ILLINOIS

CITY           SKY/WX    TMP DP  RH WIND       PRES   REMARKS
LAWRENCEVILLE  CLOUDY    74  71  91 N6        29.86S
FLORA*         SUNNY     78  73  83 N7        29.89R HX  81
FAIRFIELD*     MOSUNNY   77  72  85 N3        29.86S
HARRISBURG*    CLOUDY    76  74  93 N6        29.87S FOG
ROBINSON*      CLOUDY    73  71  93 N9        29.88R
CARMI*         CLOUDY    74  73  94 NW12      29.85F FOG
$$

ABBREVIATIONS USED IN REMARKS
   TC - TEMPERATURE IN CELSIUS
  WCI - WIND CHILL INDEX
   HX - HEAT INDEX
  VSB - VISIBILITY
$$





USA.gov is the U.S. government's official web portal to all federal, state and local government web resources and services.